Terug naar catalogus

STARLINK-3698

ActiefCommunicatieVLEO
NORAD 52108·PAYLOAD·🇺🇸 United States

Gelanceerd Mar 19, 2022 vanaf Cape Canaveral Space Force Station

Loading…

Volgende Passages (komende 24 uur)

TLE

VersSource: CelesTrak SupGP

Epoch: Sep 14, 2026, 21:13 UTC

1 52108C 22029W   26257.88451389  .00012581  00000+0  38187-3 0  2572
2 52108  53.1582 296.0059 0001219  84.6032 208.5785 15.33532801    16

Volg STARLINK-3698 in realtime met AllMySat

Download on the App Store